Decatur, IL

2:17 AM CDT on April 30, 2017 (GMT -0500)
Decatur

Weather History for KDEC - December, 2013

Change the Weather History Date:

Thursday, December 26, 2013

  Actual Average Record
Temperature  
Mean Temperature 31 °F 28 °F  
Max Temperature 41 °F 36 °F 61 °F (2016)
Min Temperature 20 °F 21 °F 3 °F (2000)
Degree Days  
Heating Degree Days 34 36  
Month to date heating degree days 947 873  
Since 1 July heating degree days 2095 1954  
Cooling Degree Days 0 0  
Month to date cooling degree days 0 0  
Year to date cooling degree days 1079 1048  
Moisture  
Dew Point 24 °F    
Average Humidity 70    
Maximum Humidity 92    
Minimum Humidity 48    
Precipitation  
Precipitation 0.00 in 0.09 in 2.76 in (2015)
Month to date precipitation 1.54 2.09  
Year to date precipitation 33.56 38.00  
Sea Level Pressure  
Sea Level Pressure 30.30 in    
Wind  
Wind Speed 10 mph (SW)    
Max Wind Speed 17 mph    
Max Gust Speed 23 mph    
Visibility 10 miles    
Events      
T = Trace of Precipitation, MM = Missing Value Source: NWS Daily Summary

Daily Weather History Graph

Daily Weather History Graph

Search for Another Location

Airport or City:

Trip Planner

Search our weather history database for the weather conditions in past years. The results will help you decide how hot, cold, wet, or windy it might be!

Date:

Astronomy

Dec. 26, 2013 Rise Set
Actual Time 7:15 AM CST 4:37 PM CST
Civil Twilight 6:45 AM CST 5:07 PM CST
Nautical Twilight 6:11 AM CST 5:41 PM CST
Astronomical Twilight 5:38 AM CST 6:14 PM CST
Moon 12:44 AM CST (12/26) 12:12 PM CST (12/26)
Length of Visible Light 10h 22m
Length of Day
9h 21m
Last Quarter, 38% of the Moon is Illuminated
Dec 26
Last Quarter
Jan 1
New
Jan 7
First Quarter
Jan 15
Full
Jan 23
Last Quarter

Hourly Weather History & Observations

Time (CST) Temp. Windchill Dew Point Humidity Pressure Visibility Wind Dir Wind Speed Gust Speed Precip Events Conditions
12:54 AM 32.0 °F 22.5 °F 26.1 °F 79% 30.25 in 10.0 mi West 12.7 mph - N/A   Overcast
1:54 AM 30.9 °F 22.8 °F 25.0 °F 79% 30.27 in 10.0 mi West 9.2 mph - N/A   Mostly Cloudy
2:40 AM 32.0 °F 24.2 °F 24.8 °F 75% 30.26 in 10.0 mi West 9.2 mph - N/A   Mostly Cloudy
2:54 AM 30.9 °F 22.2 °F 25.0 °F 79% 30.29 in 10.0 mi West 10.4 mph - N/A   Mostly Cloudy
3:27 AM 30.2 °F 21.3 °F 24.8 °F 80% 30.27 in 10.0 mi West 10.4 mph - N/A   Scattered Clouds
3:35 AM 30.2 °F 21.3 °F 24.8 °F 80% 30.27 in 10.0 mi West 10.4 mph - N/A   Mostly Cloudy
3:43 AM 28.4 °F 19.1 °F 24.8 °F 86% 30.27 in 10.0 mi West 10.4 mph - N/A   Partly Cloudy
3:54 AM 28.9 °F 19.8 °F 24.1 °F 82% 30.30 in 10.0 mi WNW 10.4 mph 18.4 mph N/A   Partly Cloudy
4:54 AM 27.0 °F 19.5 °F 21.9 °F 81% 30.30 in 10.0 mi West 6.9 mph - N/A   Clear
5:54 AM 24.1 °F 19.7 °F 21.0 °F 88% 30.32 in 10.0 mi West 3.5 mph - N/A   Clear
6:54 AM 21.0 °F 16.2 °F 18.0 °F 88% 30.33 in 10.0 mi WSW 3.5 mph - N/A   Clear
7:54 AM 21.9 °F 15.7 °F 19.0 °F 89% 30.35 in 10.0 mi SW 4.6 mph - N/A   Partly Cloudy
8:54 AM 26.1 °F 20.5 °F 21.0 °F 81% 30.38 in 10.0 mi West 4.6 mph - N/A   Overcast
9:54 AM 30.0 °F 22.4 °F 21.0 °F 69% 30.39 in 10.0 mi SSW 8.1 mph - N/A   Clear
10:54 AM 33.1 °F 25.5 °F 21.0 °F 61% 30.37 in 10.0 mi SSW 9.2 mph - N/A   Clear
11:54 AM 36.0 °F 29.0 °F 21.9 °F 57% 30.33 in 10.0 mi South 9.2 mph - N/A   Clear
12:54 PM 39.0 °F 31.8 °F 21.9 °F 50% 30.31 in 10.0 mi SSW 11.5 mph - N/A   Clear
1:54 PM 39.9 °F 31.8 °F 24.1 °F 53% 30.29 in 10.0 mi SSW 15.0 mph - N/A   Overcast
2:54 PM 39.9 °F 31.4 °F 25.0 °F 55% 30.27 in 10.0 mi South 16.1 mph - N/A   Overcast
3:54 PM 39.9 °F 32.5 °F 25.0 °F 55% 30.27 in 10.0 mi South 12.7 mph - N/A   Mostly Cloudy
4:54 PM 37.0 °F 29.3 °F 25.0 °F 62% 30.28 in 10.0 mi South 11.5 mph - N/A   Clear
5:54 PM 37.0 °F 28.1 °F 26.1 °F 65% 30.26 in 10.0 mi South 15.0 mph - N/A   Mostly Cloudy
6:54 PM 35.1 °F 26.4 °F 25.0 °F 67% 30.26 in 10.0 mi South 12.7 mph - N/A   Partly Cloudy
7:54 PM 35.1 °F 25.9 °F 25.0 °F 67% 30.27 in 10.0 mi SSW 13.8 mph - N/A   Clear
8:54 PM 35.1 °F 27.9 °F 25.0 °F 67% 30.28 in 10.0 mi SSW 9.2 mph - N/A   Clear
9:54 PM 34.0 °F 25.0 °F 26.1 °F 73% 30.29 in 10.0 mi SSW 12.7 mph - N/A   Clear
10:54 PM 33.1 °F 24.9 °F 27.0 °F 78% 30.30 in 10.0 mi SSW 10.4 mph - N/A   Clear
11:54 PM 34.0 °F 26.0 °F 27.0 °F 75% 30.30 in 10.0 mi SW 10.4 mph - N/A   Clear